Flag for Germany Weather past 2 weeks in Gaggenau, Baden-Württemberg, Germany

Now
48 °F

Broken clouds.


Feels Like: 48 °F
Forecast: 35 / 56 °F
Wind: 1 mph from North

Location: Karlsruhe - Baden Wurttemberg


UV Index: 0 (Low)

Visibility: N/A


Pressure: 29.92 "Hg

Humidity: 58%

Dew point: 34 °F

Location of GaggenauLocation

Historic Weather in Gaggenau

°F

Gaggenau temperature yesterday

Maximum temperature yesterday: 63 °F (at 3:20 PM)
Minimum temperature yesterday: 34 °F (at 5:50 AM)
Average temperature yesterday: 51 °F

Past Weeks' High & Low Weather Summary

 TemperatureHumidityPressure
High72 °F (Apr 7, 3:50 PM)94% (Apr 5, 10:50 PM)30.36 "Hg (Apr 5, 10:50 PM)
Low34 °F (Apr 16, 5:20 AM)24% (Apr 17, 3:20 PM)29.62 "Hg (Apr 3, 7:20 PM)
Average54 °F58%30.07 "Hg
* Reported Apr 3 7:20 PM — Apr 18 7:20 PM, Gaggenau, Weather by CustomWeather, © 2014

Note: Actual official high and low records may vary slightly from our data, if they occured in-between our weather recording intervals... More about our weather records

Advertising

Historic Weather Conditions — Data for Previous 24 hours

 ConditionsComfort  
Time TempWeatherWind HumidityBarometerVisibility
7:20 PM
Apr 18
50 °FScattered clouds.1 mph54%29.92 "HgN/A
6:50 PM50 °FScattered showers. Broken clouds.2 mph47%29.89 "HgN/A
6:20 PM48 °FScattered showers. Broken clouds.12 mph62%29.92 "HgN/A
5:50 PM52 °FScattered showers. Broken clouds.7 mph41%29.89 "HgN/A
5:20 PM54 °FScattered showers. Broken clouds.2 mph44%29.89 "HgN/A
4:50 PM52 °FScattered showers. Broken clouds.2 mph50%29.89 "HgN/A
4:20 PM48 °FScattered showers. Broken clouds.9 mph54%29.89 "HgN/A
3:50 PM50 °FScattered clouds.3 mph67%29.89 "HgN/A
3:20 PM48 °FScattered clouds.3 mph66%29.89 "HgN/A
3:01 PM46 °FLight rain. Broken clouds.6 mph76%29.92 "HgN/A
2:50 PM50 °FLight rain. Broken clouds.5 mph62%29.92 "HgN/A
2:20 PM52 °FPassing clouds.5 mph50%29.89 "HgN/A
1:50 PM48 °FScattered clouds.2 mph62%29.92 "HgN/A
1:20 PM48 °FBroken clouds.3 mph66%29.92 "HgN/A
12:50 PM46 °FLight rain. Broken clouds.3 mph76%29.92 "HgN/A
12:20 PM46 °FBroken clouds.2 mph76%29.92 "HgN/A
11:50 AM46 °FLight rain. Partly sunny.2 mph76%29.92 "HgN/A
11:20 AM46 °FPartly sunny.6 mph76%29.92 "Hg6 mi
10:50 AM46 °FLight rain. Partly sunny.9 mph71%29.92 "Hg6 mi
10:20 AM50 °FLight rain. Broken clouds.8 mph62%29.89 "HgN/A
9:50 AM50 °FSunny.7 mph62%29.89 "Hg10 mi
9:20 AM50 °FSunny.2 mph62%29.89 "Hg10 mi
8:50 AM48 °FSunny.5 mph66%29.89 "Hg10 mi
8:20 AM48 °FSunny.7 mph62%29.86 "Hg10 mi
7:50 AM48 °FSunny.7 mph62%29.86 "Hg10 mi
7:20 AM48 °FLight rain. Clear.7 mph58%29.86 "HgN/A
6:50 AM48 °FLight rain. Clear.7 mph54%29.86 "HgN/A
6:20 AM48 °FClear.7 mph54%29.86 "Hg10 mi
5:50 AM48 °FClear.6 mph54%29.86 "Hg10 mi
5:20 AM48 °FClear.7 mph54%29.86 "Hg10 mi
4:50 AM48 °FClear.7 mph54%29.89 "Hg10 mi
12:20 AM45 °FClear.5 mph61%29.95 "Hg10 mi
11:50 PM
Apr 17
45 °FClear.1 mph61%29.98 "Hg10 mi
11:20 PM45 °FClear.3 mph61%29.98 "Hg10 mi
10:50 PM48 °FClear.3 mph50%29.98 "Hg10 mi
10:20 PM46 °FClear.2 mph53%29.98 "Hg10 mi
9:50 PM48 °FClear.No wind50%29.98 "Hg10 mi
9:20 PM52 °FSunny.2 mph47%29.98 "Hg10 mi
8:50 PM54 °FSunny.1 mph41%30.01 "Hg10 mi
8:20 PM57 °FSunny.2 mph31%30.01 "Hg10 mi
Weather by CustomWeather, © 2014

See weather overview